TimeMDT,TemperatureF,Dew PointF,Humidity,Sea Level PressureIn,VisibilityMPH,Wind Direction,Wind SpeedMPH,Gust SpeedMPH,PrecipitationIn,Events,Conditions,WindDirDegrees,DateUTC
12:52 AM,36.0,24.1,62,30.39,10.0,NNE,3.5,-,N/A,,Overcast,20,2012-10-05 06:52:00
1:52 AM,35.6,24.8,65,30.34,10.0,NNE,6.9,-,N/A,,Overcast,30,2012-10-05 07:52:00
2:52 AM,32.0,23.0,69,30.40,10.0,Calm,Calm,-,N/A,,Clear,0,2012-10-05 08:52:00
3:52 AM,32.0,23.0,69,30.40,10.0,NW,5.8,-,N/A,,Overcast,320,2012-10-05 09:52:00
4:52 AM,30.0,23.0,75,30.39,10.0,NNW,10.4,-,N/A,,Mostly Cloudy,340,2012-10-05 10:52:00
5:52 AM,32.0,24.1,73,30.41,10.0,NW,6.9,-,N/A,,Overcast,320,2012-10-05 11:52:00
6:29 AM,33.8,24.8,70,30.35,10.0,NNW,6.9,-,N/A,,Mostly Cloudy,330,2012-10-05 12:29:00
6:52 AM,32.0,25.0,75,30.43,10.0,NNW,4.6,-,N/A,,Overcast,340,2012-10-05 12:52:00
7:52 AM,34.0,24.1,67,30.43,10.0,North,6.9,-,N/A,,Overcast,350,2012-10-05 13:52:00
8:52 AM,37.0,19.9,50,30.44,10.0,NNE,9.2,-,N/A,,Overcast,20,2012-10-05 14:52:00
9:52 AM,37.9,19.9,48,30.44,10.0,NNE,6.9,-,N/A,,Mostly Cloudy,30,2012-10-05 15:52:00
10:52 AM,39.2,21.2,49,30.37,10.0,Calm,Calm,-,N/A,,Scattered Clouds,0,2012-10-05 16:52:00
11:52 AM,41.0,19.9,43,30.43,10.0,WNW,3.5,-,N/A,,Scattered Clouds,300,2012-10-05 17:52:00
12:52 PM,42.1,19.9,41,30.42,10.0,NNW,6.9,-,N/A,,Scattered Clouds,330,2012-10-05 18:52:00
1:52 PM,43.0,19.9,40,30.40,10.0,NW,5.8,-,N/A,,Overcast,320,2012-10-05 19:52:00
2:52 PM,43.0,19.9,40,30.39,10.0,NNW,6.9,-,N/A,,Mostly Cloudy,330,2012-10-05 20:52:00
3:52 PM,44.1,21.0,40,30.38,10.0,NE,5.8,-,N/A,,Overcast,40,2012-10-05 21:52:00
4:52 PM,42.1,21.9,45,30.40,10.0,Calm,Calm,-,N/A,,Overcast,0,2012-10-05 22:52:00
5:52 PM,42.1,21.9,45,30.41,10.0,Calm,Calm,-,N/A,,Overcast,0,2012-10-05 23:52:00
6:52 PM,39.9,24.1,53,30.42,10.0,NNE,4.6,-,N/A,,Overcast,30,2012-10-06 00:52:00
7:52 PM,36.0,24.1,62,30.43,10.0,West,4.6,-,N/A,,Scattered Clouds,260,2012-10-06 01:52:00
8:52 PM,32.0,24.1,73,30.43,10.0,Calm,Calm,-,N/A,,Mostly Cloudy,0,2012-10-06 02:52:00
9:52 PM,35.1,27.0,72,30.42,10.0,Calm,Calm,-,N/A,,Overcast,0,2012-10-06 03:52:00
10:52 PM,37.0,27.0,67,30.41,10.0,North,8.1,-,N/A,,Overcast,10,2012-10-06 04:52:00
11:52 PM,34.0,21.0,59,30.43,10.0,NNE,11.5,-,N/A,,Overcast,30,2012-10-06 05:52:00